Weather History for Williamtown, NW

Change the Weather History Date:

Sunday, August 11, 2013

  Actual Average Record
Temperature  
Mean Temperature 57 °F -  
Max Temperature 73 °F 67 °F - ()
Min Temperature 41 °F 45 °F - ()
Degree Days  
Heating Degree Days 8    
Growing Degree Days 7 (Base 50)    
Moisture  
Dew Point 43 °F    
Average Humidity 63    
Maximum Humidity 94    
Minimum Humidity 16    
Precipitation  
Precipitation 0.00 in 0.09 in - ()
Sea Level Pressure  
Sea Level Pressure 29.98 in    
Wind  
Wind Speed 7 mph ()    
Max Wind Speed 15 mph    
Max Gust Speed -    
Visibility 6.2 miles    
Events      
T = Trace of Precipitation, MM = Missing Value Source: Averaged Metar Reports

Daily Weather History Graph

Daily Weather History Graph

Search for Another Location

Airport:

Trip Planner

Search our weather history database for the weather conditions in past years. The results will help you decide how hot, cold, wet, or windy it might be!

Date:

Astronomy

Aug. 11, 2013 Rise Set
Actual Time 6:34 AM EST 5:21 PM EST
Civil Twilight 6:08 AM EST 5:47 PM EST
Nautical Twilight 5:39 AM EST 6:16 PM EST
Astronomical Twilight 5:10 AM EST 6:45 PM EST
Moon 8:36 AM EST (8/11) 9:30 PM EST (8/11)
Length of Visible Light 11h 38m
Length of Day
10h 47m
Waxing Crescent, 17% of the Moon is Illuminated
Aug 11
Waxing Crescent
Aug 14
First Quarter
Aug 21
Full
Aug 28
Last Quarter
Sep 5
New

Hourly Weather History & Observations

Time (EST) Temp. Windchill Dew Point Humidity Pressure Visibility Wind Dir Wind Speed Gust Speed Precip Events Conditions
12:00 AM 51 °F - 41 °F 59% 30.04 in - NW 8.1 mph - -  
12:00 AM 50.0 °F - 41.0 °F 71% 30.01 in 6.2 mi NW 8.1 mph - N/A   Unknown
12:30 AM 48.2 °F - 41.0 °F 76% 30.01 in 6.2 mi NNW 5.8 mph - N/A   Unknown
1:00 AM 46 °F - 40 °F 72% 30.03 in - Calm Calm - -  
1:00 AM 46.4 °F - 39.2 °F 76% 30.01 in 6.2 mi Calm Calm - N/A   Unknown
1:30 AM 46.4 °F 44.3 °F 41.0 °F 81% 30.01 in - West 4.6 mph - N/A   Unknown
2:00 AM 44.6 °F 40.7 °F 41.0 °F 87% 30.01 in - WNW 6.9 mph - N/A   Unknown
2:30 AM 46.4 °F 41.9 °F 41.0 °F 81% 30.01 in - West 9.2 mph - N/A   Unknown
3:00 AM 48 °F - 41 °F 70% 30.02 in - WNW 10.4 mph - -  
3:00 AM 48.2 °F - 41.0 °F 76% 30.01 in - WNW 10.4 mph - N/A   Unknown
3:30 AM 46.4 °F 44.3 °F 41.0 °F 81% 30.01 in - NW 4.6 mph - N/A   Unknown
4:00 AM 44 °F - 41 °F 84% 30.02 in - NNW 5.8 mph - -  
4:00 AM 44.6 °F 41.4 °F 41.0 °F 87% 30.01 in - NNW 5.8 mph - N/A   Unknown
4:30 AM 42.8 °F 41.1 °F 39.2 °F 87% 30.01 in - NNW 3.5 mph - N/A   Unknown
5:00 AM 46.4 °F 42.4 °F 41.0 °F 81% 30.01 in - NNW 8.1 mph - N/A   Unknown
5:30 AM 44.6 °F 40.2 °F 41.0 °F 87% 30.01 in - NW 8.1 mph - N/A   Unknown
6:00 AM 42.8 °F 38.0 °F 39.2 °F 87% 30.04 in - WNW 8.1 mph - N/A   Unknown
6:30 AM 42.8 °F 38.0 °F 39.2 °F 87% 30.04 in - NW 8.1 mph - N/A   Unknown
7:00 AM 44 °F - 40 °F 82% 30.06 in - NW 5.8 mph - -  
7:00 AM 44.6 °F 41.4 °F 41.0 °F 87% 30.04 in 6.2 mi NW 5.8 mph - N/A   Unknown
7:30 AM 46.4 °F 43.5 °F 42.8 °F 87% 30.06 in 6.2 mi NW 5.8 mph - N/A   Unknown
8:00 AM 51.8 °F - 42.8 °F 71% 30.06 in 6.2 mi NW 8.1 mph - N/A   Unknown
8:30 AM 55.4 °F - 42.8 °F 63% 30.06 in - NW 8.1 mph - N/A   Unknown
9:00 AM 58 °F - 43 °F 47% 30.08 in - WNW 9.2 mph - -  
9:00 AM 57.2 °F - 42.8 °F 59% 30.06 in 6.2 mi WNW 9.2 mph - N/A   Unknown
9:30 AM 60.8 °F - 42.8 °F 52% 30.06 in 6.2 mi WNW 11.5 mph - N/A   Unknown
10:00 AM 62 °F - 42 °F 37% 30.07 in - WNW 15.0 mph - -  
10:00 AM 62.6 °F - 42.8 °F 48% 30.06 in 6.2 mi WNW 15.0 mph - N/A   Unknown
10:30 AM 64.4 °F - 42.8 °F 45% 30.04 in 6.2 mi West 10.4 mph - N/A   Unknown
11:00 AM 66.2 °F - 41.0 °F 40% 30.04 in 6.2 mi WNW 13.8 mph - N/A   Unknown
11:30 AM 68.0 °F - 41.0 °F 37% 30.01 in 6.2 mi NW 13.8 mph - N/A   Unknown
12:00 PM 68 °F - 39 °F 23% 30.01 in - WNW 12.7 mph - -  
12:00 PM 68.0 °F - 39.2 °F 35% 30.01 in - WNW 12.7 mph - N/A   Unknown
12:30 PM 69.8 °F - 39.2 °F 33% 29.98 in - NW 10.4 mph - N/A   Unknown
1:00 PM 72 °F - 36 °F 16% 29.97 in - WNW 15.0 mph - -  
1:00 PM 71.6 °F - 35.6 °F 27% 29.95 in 6.2 mi WNW 15.0 mph - N/A   Unknown
1:30 PM 73.4 °F - 39.2 °F 29% 29.95 in 6.2 mi WNW 13.8 mph - N/A   Unknown
2:00 PM 73.4 °F - 39.2 °F 29% 29.95 in - WNW 13.8 mph - N/A   Unknown
2:30 PM 73.4 °F - 41.0 °F 31% 29.95 in - West 11.5 mph - N/A   Unknown
3:00 PM 71 °F - 44 °F 27% 29.95 in - South 5.8 mph - -  
3:00 PM 71.6 °F - 44.6 °F 38% 29.92 in - South 5.8 mph - N/A   Unknown
3:30 PM 68.0 °F - 44.6 °F 43% 29.92 in - SE 10.4 mph - N/A   Unknown
4:00 PM 69 °F - 44 °F 30% 29.94 in - East 8.1 mph - -  
4:00 PM 68.0 °F - 44.6 °F 43% 29.92 in - East 8.1 mph - N/A   Scattered Clouds
4:30 PM 66.2 °F - 46.4 °F 49% 29.92 in - East 6.9 mph - N/A   Scattered Clouds
5:00 PM 64.4 °F - 48.2 °F 56% 29.92 in - NE 6.9 mph - N/A   Unknown
5:30 PM 62.6 °F - 48.2 °F 59% 29.92 in - NE 8.1 mph - N/A   Scattered Clouds
6:00 PM 62 °F - 49 °F 53% 29.95 in - NE 6.9 mph - -   Overcast
6:00 PM 62.6 °F - 50.0 °F 63% 29.95 in - NE 6.9 mph - N/A   Mostly Cloudy
6:30 PM 60.8 °F - 50.0 °F 68% 29.92 in - NE 8.1 mph - N/A   Overcast
7:00 PM 60 °F - 49 °F 59% 29.94 in - NE 5.8 mph - -  
7:00 PM 60.8 °F - 50.0 °F 68% 29.92 in 6.2 mi NE 5.8 mph - N/A   Mostly Cloudy
7:30 PM 59.0 °F - 50.0 °F 72% 29.92 in 6.2 mi NE 6.9 mph - N/A   Mostly Cloudy
8:00 PM 60.8 °F - 48.2 °F 63% 29.92 in 6.2 mi North 5.8 mph - N/A   Overcast
8:30 PM 57.2 °F - 50.0 °F 77% 29.92 in 6.2 mi Calm Calm - N/A   Mostly Cloudy
9:00 PM 54 °F - 49 °F 76% 29.94 in - Calm Calm - -  
9:00 PM 53.6 °F - 48.2 °F 82% 29.92 in 6.2 mi Calm Calm - N/A   Unknown
9:30 PM 53.6 °F - 46.4 °F 77% 29.92 in 6.2 mi Calm Calm - N/A   Unknown
10:00 PM 52 °F - 48 °F 82% 29.93 in - NE 4.6 mph - -  
10:00 PM 51.8 °F - 48.2 °F 88% 29.92 in - NE 4.6 mph - N/A   Unknown
10:30 PM 51.8 °F - 48.2 °F 88% 29.92 in 6.2 mi Calm Calm - N/A   Unknown
11:00 PM 50.0 °F - 48.2 °F 94% 29.92 in 6.2 mi Calm Calm - N/A   Unknown
11:30 PM 48.2 °F - 46.4 °F 93% 29.89 in 6.2 mi Calm Calm - N/A   Unknown